Погода в Таире

Россия / Республика Марий Эл     56°16′05″N   47°50′49″E
темп.,
°C
ветер,
м/с
пор.,
м/с
влажн.,
%
обл.,
%
осадки,
мм/ч
давл.,
гПа
погр.,
м
24 июля, сб
сб2400:00+13юз389297 0.0 1004263
03:00+11з279812 0.0 1004174
06:00+13зсз369142 0.0 1006308
09:00+15сз458192 0.2 1007785
12:00+19ссз4550100 0.1 10091751
15:00+19ссз4543100 0.1 10101841
18:00+18сз474529 0.0 10121008
21:00+12сз266552 0.0 1014118
25 июля, вс
вс2500:00+9сз22735 0.0 101627
03:00+8зсз22780 0.0 101815
06:00+11зсз23675 0.0 1019167
09:00+18сз23405 0.0 1020985
12:00+21сз343118 0.0 10202501
15:00+21ссз343256 0.0 10202285
18:00+20всв1247100 0.0 102071
21:00+14ю115865 0.0 102110
26 июля, пн
пн2600:00+13юз225958 0.0 102215
03:00+13зюз2659100 0.0 1022143
06:00+15зюз246128 0.0 1023144
09:00+21з234257 0.0 1023797
12:00+22сз243985 0.0 10231522
15:00+24з463497 0.0 10212741
18:00+21зсз24515 0.0 1021222
21:00+17зюз275651 0.0 1020168
27 июля, вт
вт2700:00+14зюз256829 0.0 102080
03:00+15зюз386864 0.0 1020185
06:00+16з397195 0.1 1019359
09:00+21сз47565 0.3 10191036
12:00+24сз693923 0.0 10182321
15:00+21ссз495188 0.0 10181648
18:00+21ссз485230 0.0 1018998
21:00+15сз22725 0.0 101917
28 июля, ср
ср2800:00+13ссз118192 0.0 101911
03:00+14зсз11735 0.0 101911
06:00+15сз01713 0.0 1018115
09:00+22з12535 0.0 1017785
12:00+25з24385 0.0 10162061
15:00+27з473585 0.0 10132774
18:00+23юз36548 0.0 1012177
21:00+18юз267130 0.1 101195